Weather History for Lubbock, TX

Change the Weather History Date:

Saturday, October 26, 2013

  Actual Average Record
Temperature  
Mean Temperature 60 °F 58 °F  
Max Temperature 75 °F 72 °F 88 °F (1979)
Min Temperature 45 °F 44 °F 26 °F (1913)
Degree Days  
Heating Degree Days 5 7  
Month to date heating degree days 140 117  
Since 1 July heating degree days 144 140  
Cooling Degree Days 0 1  
Month to date cooling degree days 68 51  
Year to date cooling degree days 2112 1800  
Growing Degree Days 12 (Base 50)    
Moisture  
Dew Point 46 °F    
Average Humidity 61    
Maximum Humidity 89    
Minimum Humidity 33    
Precipitation  
Precipitation 0.00 in 0.05 in 1.09 in (1969)
Month to date precipitation 1.11 1.69  
Year to date precipitation 11.43 17.27  
Snow  
Snow 0.00 in 0.00 in - ()
Month to date snowfall 0.0 0.0  
Since 1 July snowfall 0.0 0.0  
Since 1 September snowfall 0.0 0.0  
Snow Depth 0.00 in    
Sea Level Pressure  
Sea Level Pressure 30.09 in    
Wind  
Wind Speed 9 mph (NW)    
Max Wind Speed 20 mph    
Max Gust Speed 26 mph    
Visibility 10 miles    
Events      
T = Trace of Precipitation, MM = Missing Value Source: NWS Daily Summary

Daily Weather History Graph

Daily Weather History Graph

Search for Another Location

Airport:

Trip Planner

Search our weather history database for the weather conditions in past years. The results will help you decide how hot, cold, wet, or windy it might be!

Date:

Astronomy

Oct. 26, 2013 Rise Set
Actual Time 8:01 AM CDT 7:00 PM CDT
Civil Twilight 7:35 AM CDT 7:26 PM CDT
Nautical Twilight 7:06 AM CDT 7:55 PM CDT
Astronomical Twilight 6:37 AM CDT 8:24 PM CDT
Moon 12:27 AM CDT (10/26) 2:16 PM CDT (10/26)
Length of Visible Light 11h 50m
Length of Day
10h 59m
Waning Gibbous, 53% of the Moon is Illuminated
Oct 26
Waning Gibbous
Oct 26
Last Quarter
Nov 3
New
Nov 9
First Quarter
Nov 17
Full

Hourly Weather History & Observations

Time (CDT) Temp. Dew Point Humidity Pressure Visibility Wind Dir Wind Speed Gust Speed Precip Events Conditions
12:53 AM 55.0 °F 48.9 °F 80% 30.12 in 10.0 mi South 6.9 mph - N/A   Mostly Cloudy
1:53 AM 57.0 °F 48.9 °F 74% 30.12 in 10.0 mi West 6.9 mph - N/A   Overcast
2:53 AM 55.0 °F 48.9 °F 80% 30.10 in 10.0 mi SW 6.9 mph - N/A   Mostly Cloudy
3:53 AM 55.0 °F 48.9 °F 80% 30.07 in 10.0 mi SSW 10.4 mph - N/A   Mostly Cloudy
4:53 AM 57.0 °F 50.0 °F 77% 30.01 in 10.0 mi South 13.8 mph - N/A   Overcast
5:53 AM 57.0 °F 50.0 °F 77% 30.06 in 10.0 mi West 4.6 mph - N/A   Mostly Cloudy
6:53 AM 54.0 °F 48.0 °F 80% 30.07 in 10.0 mi WSW 3.5 mph - N/A   Mostly Cloudy
7:53 AM 52.0 °F 48.0 °F 86% 30.09 in 10.0 mi Calm Calm - N/A   Scattered Clouds
8:53 AM 55.0 °F 50.0 °F 83% 30.10 in 9.0 mi West 5.8 mph - N/A   Scattered Clouds
9:53 AM 60.1 °F 50.0 °F 69% 30.11 in 10.0 mi West 8.1 mph - N/A   Partly Cloudy
10:53 AM 63.0 °F 51.1 °F 65% 30.11 in 10.0 mi WSW 8.1 mph - N/A   Scattered Clouds
11:53 AM 66.9 °F 51.1 °F 57% 30.09 in 10.0 mi West 8.1 mph - N/A   Scattered Clouds
12:53 PM 71.1 °F 46.0 °F 41% 30.07 in 10.0 mi WNW 5.8 mph - N/A   Scattered Clouds
1:53 PM 73.0 °F 43.0 °F 34% 30.04 in 10.0 mi NW 12.7 mph - N/A   Scattered Clouds
2:53 PM 73.9 °F 42.1 °F 32% 30.03 in 10.0 mi North 9.2 mph 16.1 mph N/A   Partly Cloudy
3:53 PM 73.9 °F 43.0 °F 33% 30.02 in 10.0 mi NNW 17.3 mph 20.7 mph N/A   Scattered Clouds
4:53 PM 73.0 °F 43.0 °F 34% 30.03 in 10.0 mi North 15.0 mph 21.9 mph N/A   Scattered Clouds
5:53 PM 69.1 °F 44.1 °F 40% 30.06 in 10.0 mi NNE 13.8 mph 18.4 mph N/A   Partly Cloudy
6:53 PM 64.0 °F 43.0 °F 46% 30.09 in 10.0 mi North 12.7 mph 21.9 mph N/A   Partly Cloudy
7:53 PM 60.1 °F 42.1 °F 51% 30.13 in 10.0 mi North 11.5 mph - N/A   Clear
8:53 PM 55.9 °F 41.0 °F 57% 30.16 in 10.0 mi NNE 11.5 mph - N/A   Clear
9:53 PM 53.1 °F 41.0 °F 64% 30.16 in 10.0 mi NNE 6.9 mph - N/A   Clear
10:53 PM 50.0 °F 39.9 °F 68% 30.18 in 10.0 mi North 6.9 mph - N/A   Clear
11:53 PM 48.0 °F 39.0 °F 71% 30.17 in 10.0 mi North 9.2 mph - N/A   Clear